{"data":{"norad_id":66687,"epoch":"2026-05-25T03:36:08.659008Z","epoch_age_seconds":56074,"freshness":"FRESH","line1":"1 66687U 25276X   26145.15010022  .00010036  00000+0  46242-3 0  9994","line2":"2 66687  97.4262 219.1502 0005393 217.0084 143.0780 15.20463363 26922","mean_motion":15.20463363,"eccentricity":0.0005393,"inclination_deg":97.4262,"raan_deg":219.1502,"arg_perigee_deg":217.0084,"mean_anomaly_deg":143.078,"bstar":0.00046242,"rev_number":2692,"period_min":94.707970941093,"perigee_km":500.73016768273,"apogee_km":508.15371733012,"semimajor_km":6882.5789425064,"source":"CELESTRAK","updated_at":"2026-05-25T13:38:06.412294Z"}}